Location: Goleszów
(49.7327°N, 18.7414°E)
Time: 04:37:56
(UTC+02:00)

ISS - Visible Passes

Search period start: 22 May 2019 00:00
Search period end: 01 June 2019 00:00
Orbit: 407 x 410 km, 51.6° (Epoch: 22 May)

Date Brightness Start Highest point End Pass type
(mag) Time Alt. Az. Time Alt. Az. Time Alt. Az.
22 May -3.3 01:11:47 10° WNW 01:14:16 47° W 01:14:16 47° W visible
22 May -3.8 21:07:35 10° SW 21:10:50 60° SSE 21:14:06 10° ENE visible
22 May -3.3 22:44:10 10° W 22:47:27 61° N 22:50:45 10° ENE visible
23 May -3.8 00:20:53 10° WNW 00:24:13 81° NNE 00:24:37 65° E visible
23 May -3.5 21:53:12 10° W 21:56:30 70° N 21:59:49 10° ENE visible
23 May -3.5 23:29:58 10° WNW 23:33:17 67° N 23:35:08 23° E visible
24 May -1.9 01:06:37 10° WNW 01:07:50 20° W 01:07:50 20° W visible
24 May -3.3 22:39:02 10° WNW 22:42:19 60° N 22:45:36 10° E visible
25 May -3.5 00:15:40 10° WNW 00:18:26 54° WSW 00:18:26 54° WSW visible
25 May -3.2 21:48:03 10° W 21:51:20 60° N 21:54:37 10° E visible
25 May -3.9 23:24:44 10° WNW 23:28:03 89° SW 23:29:04 42° ESE visible
26 May -1.1 01:01:37 10° W 01:01:47 11° W 01:01:47 11° W visible
26 May -3.6 22:33:47 10° WNW 22:37:06 73° NNE 22:39:44 15° E visible
27 May -2.4 00:10:29 10° W 00:12:27 27° WSW 00:12:27 27° WSW visible
27 May -3.4 21:42:50 10° WNW 21:46:07 63° N 21:49:24 10° E visible
27 May -3.7 23:19:27 10° WNW 23:22:42 54° SSW 23:23:07 49° S visible
28 May -3.9 22:28:28 10° WNW 22:31:47 77° SSW 22:33:50 21° ESE visible
29 May -1.5 00:05:33 10° W 00:06:32 15° WSW 00:06:32 15° WSW visible
29 May -3.7 21:37:30 10° WNW 21:40:49 81° NNE 21:44:07 10° ESE visible
29 May -2.7 23:14:16 10° W 23:17:11 29° SW 23:17:15 29° SSW visible
30 May -3.3 22:23:09 10° WNW 22:26:19 44° SSW 22:28:00 23° SSE visible
31 May -3.7 21:32:06 10° WNW 21:35:24 65° SSW 21:38:40 10° ESE visible
31 May -1.7 23:09:29 10° W 23:11:29 15° SW 23:11:29 15° SW visible
